2019-093N (44891 NORAD) Tracking and Keplerian Element Data

This shows tracking and keplerian element data for the satellite.

Feedback or suggestion? Click here.




ElementValue
Catalog44891
Name2019-093N
Epoch Orbit422
Epoch Day18.13772728
Epoch Year2020
RAAN95.5156
Inclination98.0302
Eccentricity0.0023795
Argument of Perigee295.8669
Mean Anonmoly64.0097
Mean Motion14.8613177
Decay Rate3.23E-06
L11 44891U 19093N 20018.13772728 .00000323 00000-0 43248-4 0 9999
L22 44891 98.0302 95.5156 0023795 295.8669 64.0097 14.86131770 4224

Live tracking and technical data element details for 2019-093N (NORAD 44891). 2019-093N can be tracked NOW for your location showing map with azimuth and elevation plus other details from your city location.

Track the satellite on the map from your city or location and see movement details for azimuth, elevation, latitude, longitude, range, height, and movement on the map or in text.







IsCatalogInMostPopularTable: catalog: 44891, numindb: 7
Update: records affected: 1



GetName: 44891 2019-093N

Hit Count: updated at: Fri, 24 Jan 2020 13:57:53 GMT